Regional Weather Roundup
Issued by NWS

Home | Current Version | Previous Version | Text Only | Print | Product List | Glossary On
Versions: 1 2 3 4 5 6 7 8 9 10 11 12 13 14 15 16 17 18 19 20 21 22 23 24 25 26 27 28 29 30 31 32 33 34 35 36 37 38 39 40 41 42 43 44 45 46 47 48 49 50
000
ASUS43 KTOP 011459
RWRKS

WEATHER ROUNDUP FOR KANSAS
NATIONAL WEATHER SERVICE GOODLAND KS
1000 AM CDT SUN MAY 01 2016

NOTE:  "FAIR" INDICATES FEW OR NO CLOUDS BELOW 12,000 FEET WITH NO
SIGNIFICANT WEATHER AND/OR OBSTRUCTIONS TO VISIBILITY.

KSZ001>006-013>018-027>032-041>047-011600-
NORTHWEST KANSAS

CITY           SKY/WX    TMP DP  RH WIND       PRES   REMARKS
GOODLAND       CLOUDY    36  35  96 N23G31    30.22R WCI  24
HAYS           CLOUDY    43  34  70 N20G26    30.13S
HILL CITY      CLOUDY    44  38  79 N22       30.17R
RUSSELL        CLOUDY    43  41  93 N20       30.11R
$$

KSZ061>065-074>080-084>089-011600-
SOUTHWEST KANSAS

CITY           SKY/WX    TMP DP  RH WIND       PRES   REMARKS
DODGE CITY     CLOUDY    41  35  79 N18G26    30.15R
ELKHART          N/A     42  30  62 N22         N/A
GARDEN CITY    CLOUDY    40  34  79 N22G30    30.18R WCI  30
GREAT BEND     CLOUDY    45  36  70 NW17G28   30.12R
LIBERAL        CLOUDY    45  34  65 NW28G37   30.16S
$$

KSZ066>073-081>083-090>101-011600-
SOUTHEAST KANSAS

CITY           SKY/WX    TMP DP  RH WIND       PRES   REMARKS
CHANUTE        MOSUNNY   54  43  66 NW13G21   30.02S
COFFEYVILLE    SUNNY     54  43  66 NW8       30.04R
HUTCHINSON     CLOUDY    50  45  83 NW13      30.06S
MEDICINE LODGE   N/A     48  39  71 N20G28    30.09R
NEWTON         CLOUDY    46  39  76 W13       30.07S
PARSONS        MOSUNNY   55  45  68 NW13      30.04R
WICHITA INTL   CLOUDY    50  41  71 NW18G24   30.06S
WICHITA JABRA  PTSUNNY   50  41  71 NW17      30.05S
WICHITA MCCONL CLOUDY    48  39  71 NW17      30.05F
WINFIELD       PTSUNNY   51  40  65 NW15      30.08R
$$

KSZ007>012-019>026-033>040-048>060-102>105-011600-
NORTHEAST KANSAS

CITY           SKY/WX    TMP DP  RH WIND       PRES   REMARKS
CONCORDIA      CLOUDY    47  42  83 N16G24    30.05R
EMPORIA        PTSUNNY   50  42  74 W12       30.03R
LAWRENCE       MOSUNNY   55  48  77 W13       29.99S
MANHATTAN      CLOUDY    50  43  77 SW7       30.02R
OLATHE IND     MOSUNNY   56  46  69 W10       30.00R
OLATHE EXE     SUNNY     55  44  66 W9        29.98S
SALINA         CLOUDY    51  44  77 NW21      30.05R
TOPEKA BILLARD CLOUDY    53  47  79 W12       30.00S
TOPEKA FORBES  MOSUNNY   57  47  69 NW10      30.00R
$$




USA.gov is the U.S. government's official web portal to all federal, state and local government web resources and services.